User: anonymous   Login
Location: Unspecified
(0.0000°N, 0.0000°E)
Time: 08:48:31
(UTC+00:00)
Language:

TBA - TO BE ASSIGNED - Orbit

View from above orbital plane
View from above orbital plane
View from above satellite
View from above satellite

Ground track
Ground track

The orbit is defined by the following mean orbital elements,

1 68865U          26144.99054012 +.00000000 +00000-0 +12990-2 0 00006
2 68865  51.8863 354.3218 0001048 223.1515 136.9390 15.38733357    00
Epoch (UTC): 24 May 2026 23:46:22
Eccentricity: 0.0001048
inclination: 51.8863°
perigee height: 449 km
apogee height: 451 km
right ascension of ascending node: 354.3218°
argument of perigee: 223.1515°
revolutions per day: 15.38733357
mean anomaly at epoch: 136.9390°

The dashed part of the orbit path shows where the satellite is in the earth's shadow,  

DLR